{"data":{"norad_id":52445,"intl_designator":"2022-048C","name":"JILIN-1 GAOFEN 3D28","alt_names":[],"object_type":"PAYLOAD","status":"ACTIVE","operator":null,"country":"PRC","launch_date":"2022-05-05","launch_site_code":"TAISC","launch_vehicle":null,"mission":null,"orbit_class":"UNKNOWN","rcs_meters":null,"size_class":null,"mass_kg":null,"dimensions":null,"purposes":[],"wikipedia_slug":null,"has_3d_model":false,"image_url":null,"decayed_at":null,"tle_current":{"epoch":"2026-08-19T08:11:49.766208Z","epoch_age_seconds":2902799,"freshness":"OLD","line1":"1 52445U 22048C   26231.34154822  .06872821  26340-5  76023-3 0  9994","line2":"2 52445  97.5665 352.9597 0012881 270.7055  89.2766 16.36995988239585","mean_motion":16.36995988,"eccentricity":0.0012881,"inclination_deg":97.5665,"raan_deg":352.9597,"arg_perigee_deg":270.7055,"mean_anomaly_deg":89.2766,"bstar":0.00076023,"rev_number":23958,"period_min":87.966006670506,"perigee_km":165.36625291888,"apogee_km":182.24536798717,"semimajor_km":6551.942810453,"source":"CELESTRAK","updated_at":"2026-08-20T09:00:18.655000Z"}}}